FW4581 Weather Reports


time (UTC)temp
F
wind
direction
speed
knots
gust
knots
rain 1hr
in
rain 24hr
in
rain mn
in
humidity
%
barometer
mb
20260906094513 69 355 0.0 1.7 0.00 0.16 0.16 94 1011.0
20260906093013 69 355 0.0 0.9 0.00 0.16 0.16 94 1010.9
20260906091520 69 345 0.0 0.9 0.00 0.16 0.16 94 1010.8
20260906090015 69 14 0.0 0.0 0.00 0.16 0.16 94 1010.7
20260906084513 69 14 0.0 1.7 0.00 0.16 0.16 94 1010.8
20260906083013 69 246 0.0 0.0 0.00 0.16 0.16 94 1010.6
20260906081518 69 246 0.0 0.0 0.00 0.16 0.16 94 1010.7
20260906080014 69 246 0.0 0.0 0.00 0.16 0.16 94 1010.6
20260906074511 69 246 0.0 0.0 0.00 0.16 0.16 94 1010.6
20260906073009 69 246 0.0 0.0 0.00 0.16 0.16 93 1010.3
20260906071510 69 246 0.0 0.0 0.00 0.16 0.16 93 1010.4
20260906070009 69 246 0.0 0.0 0.00 0.16 0.16 93 1010.6
20260906064510 70 246 0.0 1.7 0.00 0.16 0.16 93 1010.6
20260906063008 70 246 0.0 0.0 0.00 0.16 0.16 93 1010.6
20260906061507 70 246 0.0 0.9 0.00 0.16 0.16 93 1011.0
20260906060010 70 246 0.0 0.0 0.00 0.16 0.16 93 1011.1
20260906054505 70 246 0.0 0.0 0.00 0.16 0.16 93 1011.4
20260906053005 70 246 0.0 0.0 0.00 0.16 0.16 93 1011.6
20260906051504 70 246 0.0 2.6 0.00 0.16 0.16 93 1011.5
20260906050003 70 287 0.0 1.7 0.00 0.16 0.16 93 1011.8
20260906044502 71 286 0.0 0.0 0.00 0.16 0.16 93 1011.8
20260906043008 71 286 0.0 0.9 0.00 0.16 0.16 93 1012.0
20260906041503 71 279 0.0 1.7 0.00 0.16 0.16 93 1012.0
20260906040002 71 281 0.0 1.7 0.00 0.16 0.16 93 1011.9
20260906034501 71 163 0.0 0.0 0.00 0.16 0.16 93 1011.9
20260906033003 71 163 0.0 0.0 0.00 0.16 0.16 93 1011.8
20260906031559 71 163 0.0 0.0 0.00 0.16 0.16 93 1012.0
20260906024612 71 163 0.0 0.0 0.00 0.16 0.16 93 1012.2
20260906023103 72 163 0.0 0.0 0.00 0.16 0.16 93 1012.1
20260906021558 72 163 0.0 0.0 0.00 0.16 0.16 92 1012.1
20260906020057 72 163 0.0 0.0 0.00 0.16 0.16 93 1012.0
20260906014556 72 163 0.0 0.0 0.00 0.16 0.16 92 1011.8
20260906013100 72 163 0.0 0.0 0.00 0.16 0.16 92 1011.6
20260906011555 72 163 0.0 0.0 0.00 0.16 0.16 92 1011.3
20260906010053 72 163 0.0 0.0 0.00 0.16 0.16 92 1011.0
20260906004552 73 163 0.0 0.0 0.00 0.16 0.16 92 1011.3
20260906003054 73 163 0.0 0.0 0.00 0.16 0.16 92 1011.5
20260906001551 73 163 0.0 0.9 0.00 0.16 0.16 92 1011.4
20260906000051 73 163 0.0 1.7 0.00 0.16 0.16 92 1011.4
20260905234549 74 163 0.0 2.6 0.00 0.16 0.16 92 1011.5
20260905233056 75 171 0.9 3.5 0.00 0.16 0.16 92 1011.6
20260905231549 76 158 0.0 2.6 0.01 0.16 0.16 92 1011.5
20260905230050 76 192 0.0 0.0 0.01 0.16 0.16 92 1010.9
20260905224611 76 192 0.0 1.7 0.01 0.16 0.16 91 1010.1
20260905223048 76 192 0.0 1.7 0.01 0.16 0.16 91 1010.2
20260905221546 76 207 0.0 2.6 0.01 0.15 0.15 91 1010.8
20260905220049 76 178 0.9 2.6 0.11 0.15 0.15 90 1011.1
20260905214549 76 165 0.9 5.2 0.15 0.15 0.15 89 1011.1
20260905213045 77 19 0.9 1.7 0.15 0.15 0.15 88 1010.8
20260905211549 79 19 0.0 5.2 0.15 0.15 0.15 84 1010.6
20260905210052 85 282 3.5 10.4 0.05 0.05 0.05 78 1011.0
20260905204545 93 338 0.0 5.2 0.00 0.00 0.00 62 1009.8
20260905203046 94 14 0.0 4.3 0.00 0.00 0.00 60 1009.2
20260905201547 95 344 0.0 1.7 0.00 0.00 0.00 56 1009.7
20260905200042 97 289 0.9 3.5 0.00 0.00 0.00 51 1009.7
20260905194547 96 254 0.9 2.6 0.00 0.00 0.00 55 1009.6
20260905193041 98 169 0.9 4.3 0.00 0.00 0.00 49 1009.8
20260905191541 98 198 0.9 7.8 0.00 0.00 0.00 50 1009.9
20260905190039 98 282 1.7 6.1 0.00 0.00 0.00 50 1010.0
20260905184547 97 304 2.6 4.3 0.00 0.00 0.00 51 1010.4
20260905183034 98 117 1.7 4.3 0.00 0.00 0.00 56 1010.7
20260905181532 94 227 0.0 1.7 0.00 0.00 0.00 62 1010.9
20260905180037 96 344 0.0 5.2 0.00 0.00 0.00 57 1011.3
20260905174528 97 113 0.0 2.6 0.00 0.00 0.00 59 1011.4
20260905173024 96 206 0.9 4.3 0.00 0.00 0.00 61 1011.8
20260905171521 96 240 0.9 4.3 0.00 0.00 0.00 59 1012.0
20260905170019 96 271 0.9 5.2 0.00 0.00 0.00 58 1012.2
20260905164523 95 274 0.9 6.1 0.00 0.00 0.00 62 1012.4
20260905163012 93 319 1.7 4.3 0.00 0.00 0.00 61 1012.7
20260905161509 93 199 0.9 2.6 0.00 0.00 0.00 63 1012.9
20260905160007 93 269 0.9 3.5 0.00 0.00 0.00 66 1012.8
20260905154502 92 248 1.7 5.2 0.00 0.00 0.00 66 1013.0
20260905153058 91 5 0.0 4.3 0.00 0.00 0.00 69 1013.3
20260905150054 89 347 1.7 3.5 0.00 0.00 0.00 71 1013.3
20260905144547 88 248 0.0 3.5 0.00 0.00 0.00 74 1013.5
20260905143043 87 277 0.0 6.1 0.00 0.00 0.00 76 1013.5
20260905140038 83 181 0.0 3.5 0.00 0.00 0.00 83 1013.4
20260905134535 82 217 0.0 3.5 0.00 0.00 0.00 86 1013.5
20260905133036 80 137 0.0 2.6 0.00 0.00 0.00 89 1013.5
20260905130025 77 215 0.9 2.6 0.00 0.00 0.00 92 1013.8
20260905124524 77 183 0.0 1.7 0.00 0.00 0.00 93 1013.8
20260905123020 76 231 0.0 2.6 0.00 0.00 0.00 93 1013.6
20260905120013 75 165 0.0 0.0 0.00 0.00 0.00 93 1013.5
20260905114509 75 185 0.0 0.0 0.00 0.00 0.00 93 1013.4
20260905113006 74 183 0.0 0.9 0.00 0.00 0.00 92 1013.2
20260905110006 74 255 0.0 1.7 0.00 0.00 0.00 92 1013.1
20260905104503 74 187 0.0 0.0 0.00 0.00 0.00 92 1013.0
20260905103006 75 187 0.0 0.0 0.00 0.00 0.00 92 1013.0
20260905100119 75 273 0.0 0.0 0.00 0.00 0.00 92 1012.7